Weather History for Wadena, MN

Change the Weather History Date:

Wednesday, October 24, 2012

  Actual Average Record
Temperature  
Mean Temperature 44 °F -  
Max Temperature 53 °F 52 °F 73 °F (1989)
Min Temperature 33 °F 30 °F 12 °F (1936)
Degree Days  
Heating Degree Days 21    
Moisture  
Dew Point 40 °F    
Average Humidity 90    
Maximum Humidity 100    
Minimum Humidity 81    
Precipitation  
Precipitation 0.00 in - - ()
Sea Level Pressure  
Sea Level Pressure 29.87 in    
Wind  
Wind Speed 9 mph (NW)    
Max Wind Speed 15 mph    
Max Gust Speed 18 mph    
Visibility 8 miles    
Events Rain    
Averages and records for this station are not official NWS values.
T = Trace of Precipitation, MM = Missing Value Source: NWS Daily Summary

Daily Weather History Graph

Daily Weather History Graph

Search for Another Location

Airport:

Trip Planner

Search our weather history database for the weather conditions in past years. The results will help you decide how hot, cold, wet, or windy it might be!

Date:

Astronomy

Oct. 24, 2012 Rise Set
Actual Time 7:51 AM CDT 6:17 PM CDT
Civil Twilight 7:20 AM CDT 6:48 PM CDT
Nautical Twilight 6:45 AM CDT 7:23 PM CDT
Astronomical Twilight 6:10 AM CDT 7:58 PM CDT
Moon 3:48 PM CDT (10/24) 2:31 AM CDT (10/24)
Length of Visible Light 11h 27m
Length of Day
10h 26m
Waxing Gibbous, 76% of the Moon is Illuminated
Oct 24
Waxing Gibbous
Oct 29
Full
Nov 6
Last Quarter
Nov 13
New
Nov 20
First Quarter

Hourly Weather History & Observations

Time (CDT) Temp. Windchill Dew Point Humidity Pressure Visibility Wind Dir Wind Speed Gust Speed Precip Events Conditions
12:15 AM 53.6 °F - 51.8 °F 94% 29.75 in 4.0 mi West 8.1 mph - N/A   Overcast
12:35 AM 53.6 °F - 51.8 °F 94% 29.76 in 4.0 mi West 9.2 mph - N/A   Overcast
12:53 AM 51.8 °F - 51.8 °F 100% 29.77 in 5.0 mi West 5.8 mph - N/A   Overcast
1:15 AM 51.8 °F - 51.8 °F 100% 29.79 in 5.0 mi West 8.1 mph - N/A   Overcast
1:35 AM 51.8 °F - 50.0 °F 94% 29.80 in 7.0 mi West 9.2 mph - N/A   Overcast
1:53 AM 51.8 °F - 50.0 °F 94% 29.80 in 7.0 mi WNW 8.1 mph - N/A   Overcast
2:15 AM 50.0 °F - 48.2 °F 94% 29.81 in 7.0 mi West 10.4 mph 16.1 mph N/A   Overcast
2:35 AM 48.2 °F - 46.4 °F 93% 29.82 in 7.0 mi West 10.4 mph 17.3 mph N/A   Overcast
2:52 AM 48.2 °F - 46.4 °F 93% 29.83 in 10.0 mi WNW 12.7 mph 18.4 mph N/A   Overcast
3:15 AM 46.4 °F 41.1 °F 44.6 °F 93% 29.84 in 10.0 mi WNW 11.5 mph - N/A   Overcast
3:35 AM 44.6 °F 39.7 °F 42.8 °F 93% 29.83 in 10.0 mi NW 9.2 mph - N/A   Overcast
3:52 AM 44.6 °F 39.2 °F 42.8 °F 93% 29.80 in 10.0 mi NNW 10.4 mph - N/A   Overcast
4:15 AM 44.6 °F 39.2 °F 42.8 °F 93% 29.81 in 10.0 mi NNW 10.4 mph 16.1 mph N/A   Overcast
4:35 AM 44.6 °F 41.4 °F 42.8 °F 93% 29.82 in 10.0 mi NW 5.8 mph - N/A   Overcast
4:52 AM 44.6 °F 42.2 °F 42.8 °F 93% 29.82 in 10.0 mi NNW 4.6 mph - N/A   Overcast
5:15 AM 44.6 °F 39.7 °F 42.8 °F 93% 29.81 in 10.0 mi NNW 9.2 mph - N/A   Overcast
5:35 AM 44.6 °F 39.7 °F 42.8 °F 93% 29.84 in 10.0 mi NW 9.2 mph - N/A   Overcast
5:52 AM 44.6 °F 40.2 °F 42.8 °F 93% 29.86 in 10.0 mi WNW 8.1 mph - N/A   Overcast
6:15 AM 44.6 °F 40.2 °F 42.8 °F 93% 29.87 in 10.0 mi WNW 8.1 mph - N/A   Overcast
6:35 AM 42.8 °F 38.0 °F 41.0 °F 93% 29.88 in 10.0 mi NW 8.1 mph - N/A   Overcast
6:52 AM 42.8 °F 38.6 °F 41.0 °F 93% 29.89 in 10.0 mi WNW 6.9 mph - N/A   Overcast
7:15 AM 42.8 °F 41.1 °F 41.0 °F 93% 29.88 in 7.0 mi NW 3.5 mph - N/A   Overcast
7:35 AM 42.8 °F 40.1 °F 41.0 °F 93% 29.89 in 7.0 mi NW 4.6 mph - N/A   Overcast
7:53 AM 42.8 °F 40.1 °F 41.0 °F 93% 29.90 in 7.0 mi WNW 4.6 mph - N/A   Overcast
8:15 AM 42.8 °F 39.3 °F 39.2 °F 87% 29.91 in 5.0 mi WNW 5.8 mph - N/A   Overcast
8:35 AM 42.8 °F 39.3 °F 39.2 °F 87% 29.91 in 5.0 mi WNW 5.8 mph - N/A   Overcast
8:53 AM 41.0 °F 37.1 °F 39.2 °F 93% 29.92 in 4.0 mi WNW 5.8 mph - N/A   Overcast
9:35 AM 41.0 °F 36.4 °F 39.2 °F 93% 29.90 in 5.0 mi NW 6.9 mph - N/A   Overcast
9:53 AM 42.8 °F 36.6 °F 39.2 °F 87% 29.90 in 5.0 mi WNW 11.5 mph - N/A   Overcast
10:15 AM 41.0 °F 34.7 °F 39.2 °F 93% 29.89 in 5.0 mi NW 10.4 mph - N/A   Overcast
10:35 AM 41.0 °F 35.8 °F 39.2 °F 93% 29.88 in 7.0 mi NNW 8.1 mph - N/A   Overcast
11:15 AM 41.0 °F 35.8 °F 39.2 °F 93% 29.89 in 4.0 mi NW 8.1 mph - N/A   Overcast
11:35 AM 41.0 °F 36.4 °F 39.2 °F 93% 29.89 in 4.0 mi NW 6.9 mph - N/A   Overcast
11:52 AM 41.0 °F 36.4 °F 39.2 °F 93% 29.88 in 4.0 mi NNW 6.9 mph - N/A   Overcast
12:15 PM 42.8 °F 39.3 °F 39.2 °F 87% 29.89 in 5.0 mi NNW 5.8 mph - N/A   Overcast
12:35 PM 42.8 °F 38.6 °F 39.2 °F 87% 29.90 in 5.0 mi NW 6.9 mph - N/A   Overcast
12:52 PM 42.8 °F 38.0 °F 39.2 °F 87% 29.90 in 5.0 mi NW 8.1 mph - N/A   Overcast
1:14 PM 42.8 °F 39.3 °F 39.2 °F 87% 29.90 in 5.0 mi NW 5.8 mph - N/A   Overcast
1:35 PM 42.8 °F 39.3 °F 39.2 °F 87% 29.90 in 7.0 mi NW 5.8 mph - N/A   Overcast
1:52 PM 42.8 °F 38.0 °F 39.2 °F 87% 29.90 in 7.0 mi NW 8.1 mph - N/A   Overcast
2:15 PM 42.8 °F 37.5 °F 39.2 °F 87% 29.90 in 7.0 mi NW 9.2 mph - N/A   Overcast
2:35 PM 42.8 °F 37.5 °F 39.2 °F 87% 29.88 in 7.0 mi WNW 9.2 mph - N/A   Overcast
2:53 PM 42.8 °F 36.6 °F 37.4 °F 81% 29.88 in 10.0 mi NW 11.5 mph - N/A   Overcast
3:14 PM 42.8 °F 35.8 °F 37.4 °F 81% 29.88 in 10.0 mi NW 13.8 mph - N/A   Overcast
3:35 PM 42.8 °F 36.2 °F 37.4 °F 81% 29.87 in 10.0 mi NNW 12.7 mph - N/A   Overcast
3:52 PM 42.8 °F 36.6 °F 37.4 °F 81% 29.88 in 10.0 mi NNW 11.5 mph - N/A   Overcast
4:14 PM 42.8 °F 37.0 °F 37.4 °F 81% 29.88 in 10.0 mi NNW 10.4 mph - N/A   Overcast
4:35 PM 42.8 °F 36.6 °F 37.4 °F 81% 29.88 in 10.0 mi NNW 11.5 mph - N/A   Overcast
4:52 PM 41.0 °F 34.3 °F 37.4 °F 87% 29.88 in 10.0 mi NNW 11.5 mph 18.4 mph N/A   Mostly Cloudy
5:15 PM 41.0 °F 34.7 °F 37.4 °F 87% 29.88 in 10.0 mi North 10.4 mph - N/A   Overcast
5:35 PM 41.0 °F 35.8 °F 35.6 °F 81% 29.88 in 10.0 mi North 8.1 mph - N/A   Overcast
5:52 PM 41.0 °F 35.2 °F 35.6 °F 81% 29.89 in 10.0 mi North 9.2 mph - N/A   Overcast
6:15 PM 39.2 °F 33.0 °F 35.6 °F 87% 29.87 in 10.0 mi North 9.2 mph - N/A   Scattered Clouds
6:35 PM 39.2 °F 33.6 °F 35.6 °F 87% 29.87 in 10.0 mi North 8.1 mph - N/A   Clear
6:52 PM 39.2 °F 34.2 °F 35.6 °F 87% 29.87 in 10.0 mi North 6.9 mph - N/A   Clear
7:15 PM 39.2 °F 33.6 °F 35.6 °F 87% 29.89 in 10.0 mi North 8.1 mph - N/A   Scattered Clouds
7:35 PM 39.2 °F 33.6 °F 35.6 °F 87% 29.88 in 10.0 mi North 8.1 mph - N/A   Scattered Clouds
8:15 PM 39.2 °F 35.0 °F 35.6 °F 87% 29.90 in 10.0 mi NNW 5.8 mph - N/A   Mostly Cloudy
8:35 PM 39.2 °F 34.2 °F 35.6 °F 87% 29.90 in 10.0 mi NNW 6.9 mph - N/A   Overcast
8:52 PM 39.2 °F 33.6 °F 35.6 °F 87% 29.91 in 10.0 mi NNW 8.1 mph - N/A   Overcast
9:15 PM 39.2 °F 33.0 °F 35.6 °F 87% 29.92 in 10.0 mi NNW 9.2 mph - N/A   Overcast
9:35 PM 39.2 °F 33.0 °F 35.6 °F 87% 29.92 in 10.0 mi NW 9.2 mph - N/A   Overcast
9:52 PM 37.4 °F 32.1 °F 35.6 °F 93% 29.92 in 10.0 mi NW 6.9 mph - N/A   Overcast
10:15 PM 37.4 °F 30.3 °F 33.8 °F 87% 29.93 in 10.0 mi NW 10.4 mph - N/A   Overcast
10:35 PM 37.4 °F 29.8 °F 33.8 °F 87% 29.93 in 10.0 mi NNW 11.5 mph 17.3 mph N/A Rain Light Rain
10:52 PM 35.6 °F 28.0 °F 33.8 °F 93% 29.93 in 10.0 mi NNW 10.4 mph - N/A Rain Rain
11:15 PM 35.6 °F 26.2 °F 33.8 °F 93% 29.91 in 7.0 mi NNW 15.0 mph 18.4 mph N/A Rain Light Rain
11:35 PM 35.6 °F 27.5 °F 33.8 °F 93% 29.90 in 7.0 mi NNW 11.5 mph - N/A Rain Light Rain
11:52 PM 33.8 °F 27.0 °F 33.8 °F 100% 29.91 in 7.0 mi NNW 8.1 mph - N/A Rain Light Rain